Time,TemperatureF,DewpointF,PressureIn,WindDirection,WindDirectionDegrees,WindSpeedMPH,WindSpeedGustMPH,Humidity,HourlyPrecipIn,Conditions,Clouds,dailyrainin,SoftwareType,DateUTC
2016-07-23 00:01:00,79.5,89.5,30.03,WNW,292,0.0,0.0,79,0.00,,,0.00,,2016-07-23 04:01:00,
2016-07-23 00:06:00,79.5,89.6,30.02,West,270,0.0,0.0,79,0.00,,,0.00,,2016-07-23 04:06:00,
2016-07-23 00:11:00,79.5,89.6,30.02,WNW,292,0.0,0.0,79,0.00,,,0.00,,2016-07-23 04:11:00,
2016-07-23 00:16:00,79.5,89.6,30.02,West,270,0.0,0.0,79,0.00,,,0.00,,2016-07-23 04:16:00,
2016-07-23 00:21:00,79.5,89.5,30.02,WNW,292,0.0,0.0,79,0.00,,,0.00,,2016-07-23 04:21:00,
2016-07-23 00:26:00,79.4,89.5,30.02,WNW,292,0.0,0.0,79,0.00,,,0.00,,2016-07-23 04:26:00,
2016-07-23 00:31:00,79.4,89.5,30.02,WNW,292,0.0,0.0,79,0.00,,,0.00,,2016-07-23 04:31:00,
2016-07-23 00:36:00,79.4,89.5,30.02,WNW,292,0.0,0.0,80,0.00,,,0.00,,2016-07-23 04:36:00,
2016-07-23 00:41:00,79.4,89.5,30.02,WNW,292,0.0,0.0,80,0.00,,,0.00,,2016-07-23 04:41:00,
2016-07-23 00:46:00,79.4,89.5,30.02,WNW,292,0.0,0.0,80,0.00,,,0.00,,2016-07-23 04:46:00,
2016-07-23 00:51:00,79.4,89.5,30.02,WNW,292,0.0,0.0,80,0.00,,,0.00,,2016-07-23 04:51:00,
2016-07-23 00:56:00,79.3,89.4,30.02,WNW,292,0.0,0.0,80,0.00,,,0.00,,2016-07-23 04:56:00,
2016-07-23 01:01:00,79.2,89.3,30.02,WNW,292,0.0,0.0,80,0.00,,,0.00,,2016-07-23 05:01:00,
2016-07-23 01:06:00,79.1,89.4,30.02,North,0,0.0,0.0,81,0.00,,,0.00,,2016-07-23 05:06:00,
2016-07-23 01:11:00,79.0,89.3,30.01,North,0,0.0,0.0,82,0.00,,,0.00,,2016-07-23 05:11:00,
2016-07-23 01:16:00,78.8,89.3,30.01,North,0,0.0,0.0,81,0.00,,,0.00,,2016-07-23 05:16:00,
2016-07-23 01:21:00,78.9,89.3,30.01,North,0,0.0,0.0,81,0.00,,,0.00,,2016-07-23 05:21:00,
2016-07-23 01:26:00,78.9,89.4,30.01,North,0,0.0,0.0,81,0.00,,,0.00,,2016-07-23 05:26:00,
2016-07-23 01:31:00,78.9,89.4,30.01,North,0,0.0,0.0,81,0.00,,,0.00,,2016-07-23 05:31:00,
2016-07-23 01:36:00,78.8,89.4,30.01,North,0,0.0,0.0,82,0.00,,,0.00,,2016-07-23 05:36:00,
2016-07-23 01:41:00,78.9,89.5,30.01,North,0,0.0,0.0,82,0.00,,,0.00,,2016-07-23 05:41:00,
2016-07-23 01:46:00,78.8,89.4,30.01,North,0,0.0,0.0,82,0.00,,,0.00,,2016-07-23 05:46:00,
2016-07-23 01:51:00,78.8,89.4,30.01,North,0,0.0,0.0,82,0.00,,,0.00,,2016-07-23 05:51:00,
2016-07-23 01:56:00,78.7,89.3,30.01,NNW,337,0.0,0.0,81,0.00,,,0.00,,2016-07-23 05:56:00,
2016-07-23 02:01:00,78.6,89.3,30.01,NNW,337,0.0,0.0,81,0.00,,,0.00,,2016-07-23 06:01:00,
2016-07-23 02:06:00,78.6,89.2,30.01,NNW,337,0.0,0.0,81,0.00,,,0.00,,2016-07-23 06:06:00,
2016-07-23 02:11:00,78.6,89.2,30.01,NNW,337,0.0,0.0,81,0.00,,,0.00,,2016-07-23 06:11:00,
2016-07-23 02:16:00,78.5,89.1,30.01,NNW,337,0.0,0.0,81,0.00,,,0.00,,2016-07-23 06:16:00,
2016-07-23 02:21:00,78.5,89.2,30.01,NNW,337,0.0,0.0,82,0.00,,,0.00,,2016-07-23 06:21:00,
2016-07-23 02:26:00,78.4,89.2,30.00,NNW,337,0.0,0.0,83,0.00,,,0.00,,2016-07-23 06:26:00,
2016-07-23 02:31:00,78.4,89.2,30.00,NNW,337,0.0,0.0,82,0.00,,,0.00,,2016-07-23 06:31:00,
2016-07-23 02:36:00,78.5,89.2,30.00,NNW,337,0.0,0.0,82,0.00,,,0.00,,2016-07-23 06:36:00,
2016-07-23 02:41:00,78.4,89.3,30.00,NNW,337,0.0,0.0,83,0.00,,,0.00,,2016-07-23 06:41:00,
2016-07-23 02:46:00,78.4,89.2,30.00,North,0,0.0,0.0,83,0.00,,,0.00,,2016-07-23 06:46:00,
2016-07-23 02:51:00,78.5,89.1,30.00,North,0,0.0,0.0,83,0.00,,,0.00,,2016-07-23 06:51:00,
2016-07-23 02:56:00,78.6,89.2,30.01,North,0,0.0,0.0,83,0.00,,,0.00,,2016-07-23 06:56:00,
2016-07-23 03:01:00,78.5,89.2,30.01,North,0,0.0,0.0,83,0.00,,,0.00,,2016-07-23 07:01:00,
2016-07-23 03:06:00,78.4,89.2,30.01,North,0,0.0,0.0,84,0.00,,,0.00,,2016-07-23 07:06:00,
2016-07-23 03:11:00,78.3,89.3,30.00,North,0,0.0,0.0,84,0.00,,,0.00,,2016-07-23 07:11:00,
2016-07-23 03:16:00,78.3,89.2,30.00,North,0,0.0,0.0,83,0.00,,,0.00,,2016-07-23 07:16:00,
2016-07-23 03:21:00,78.1,89.2,30.00,North,0,0.0,0.0,83,0.00,,,0.00,,2016-07-23 07:21:00,
2016-07-23 03:26:00,78.1,89.1,29.99,North,0,0.0,0.0,85,0.00,,,0.00,,2016-07-23 07:26:00,
2016-07-23 03:31:00,78.0,89.1,29.99,North,0,0.0,0.0,84,0.00,,,0.00,,2016-07-23 07:31:00,
2016-07-23 03:36:00,78.0,89.1,29.99,North,0,0.0,0.0,84,0.00,,,0.00,,2016-07-23 07:36:00,
2016-07-23 03:41:00,77.9,89.0,29.99,North,0,0.0,0.0,84,0.00,,,0.00,,2016-07-23 07:41:00,
2016-07-23 03:46:00,77.8,89.1,29.99,NNE,22,0.0,0.0,85,0.00,,,0.00,,2016-07-23 07:46:00,
2016-07-23 03:51:00,77.9,89.0,29.99,North,0,0.0,0.0,85,0.00,,,0.00,,2016-07-23 07:51:00,
2016-07-23 03:56:00,77.7,89.0,29.99,North,0,0.0,0.0,84,0.00,,,0.00,,2016-07-23 07:56:00,
2016-07-23 04:01:00,77.6,89.0,29.99,North,0,0.0,0.0,85,0.00,,,0.00,,2016-07-23 08:01:00,
2016-07-23 04:06:00,77.6,89.1,29.99,North,0,0.0,0.0,85,0.00,,,0.00,,2016-07-23 08:06:00,
2016-07-23 04:11:00,77.6,89.0,29.99,North,0,0.0,0.0,85,0.00,,,0.00,,2016-07-23 08:11:00,
2016-07-23 04:16:00,77.6,89.0,29.99,North,0,0.0,0.0,84,0.00,,,0.00,,2016-07-23 08:16:00,
2016-07-23 04:21:00,77.5,89.0,29.99,North,0,0.0,0.0,85,0.00,,,0.00,,2016-07-23 08:21:00,
2016-07-23 04:26:00,77.6,88.9,29.99,North,0,0.0,0.0,85,0.00,,,0.00,,2016-07-23 08:26:00,
2016-07-23 04:31:00,77.6,88.9,29.99,North,0,0.0,0.0,85,0.00,,,0.00,,2016-07-23 08:31:00,
2016-07-23 04:36:00,77.6,89.0,29.99,North,0,0.0,0.0,85,0.00,,,0.00,,2016-07-23 08:36:00,
2016-07-23 04:41:00,77.8,88.9,29.99,North,0,0.0,0.0,85,0.00,,,0.00,,2016-07-23 08:41:00,
2016-07-23 04:46:00,77.8,88.8,29.99,North,0,0.0,0.0,85,0.00,,,0.00,,2016-07-23 08:46:00,
2016-07-23 04:51:00,77.7,88.9,29.99,North,0,0.0,0.0,85,0.00,,,0.00,,2016-07-23 08:51:00,
2016-07-23 04:56:00,77.7,88.8,29.99,North,0,0.0,0.0,85,0.00,,,0.00,,2016-07-23 08:56:00,
2016-07-23 05:01:00,77.7,88.8,29.99,NNW,337,0.0,0.0,85,0.00,,,0.00,,2016-07-23 09:01:00,
2016-07-23 05:06:00,77.7,88.8,29.98,NNW,337,0.0,0.0,85,0.00,,,0.00,,2016-07-23 09:06:00,
2016-07-23 05:11:00,77.7,88.8,29.98,NNW,337,0.0,0.0,85,0.00,,,0.00,,2016-07-23 09:11:00,
2016-07-23 05:16:00,77.7,88.9,29.98,NNW,337,0.0,0.0,85,0.00,,,0.00,,2016-07-23 09:16:00,
2016-07-23 05:21:00,77.8,88.9,29.98,NNW,337,0.0,0.0,84,0.00,,,0.00,,2016-07-23 09:21:00,
2016-07-23 05:27:00,77.8,88.9,29.98,NNW,337,0.0,0.0,84,0.00,,,0.00,,2016-07-23 09:27:00,
2016-07-23 05:32:00,77.8,88.9,29.98,NNW,337,0.0,0.0,84,0.00,,,0.00,,2016-07-23 09:32:00,
2016-07-23 05:37:00,77.9,88.9,29.98,NNW,337,0.0,0.0,84,0.00,,,0.00,,2016-07-23 09:37:00,
2016-07-23 05:42:00,78.0,88.9,29.98,NNW,337,0.0,0.0,84,0.00,,,0.00,,2016-07-23 09:42:00,
2016-07-23 05:47:00,78.0,88.9,29.98,NNW,337,0.0,0.0,84,0.00,,,0.00,,2016-07-23 09:47:00,
2016-07-23 05:52:00,77.9,88.9,29.98,NNW,337,0.0,0.0,84,0.00,,,0.00,,2016-07-23 09:52:00,
2016-07-23 05:57:00,77.9,89.0,29.98,North,0,0.0,0.0,84,0.00,,,0.00,,2016-07-23 09:57:00,
2016-07-23 06:02:00,78.0,89.0,29.99,North,0,0.0,0.0,84,0.00,,,0.00,,2016-07-23 10:02:00,
2016-07-23 06:07:00,77.9,88.9,29.99,NNW,337,0.0,0.0,84,0.00,,,0.00,,2016-07-23 10:07:00,
2016-07-23 06:12:00,77.9,89.0,29.99,North,0,0.0,0.0,85,0.00,,,0.00,,2016-07-23 10:12:00,
2016-07-23 06:17:00,77.9,89.0,29.99,North,0,0.0,0.0,85,0.00,,,0.00,,2016-07-23 10:17:00,
2016-07-23 06:22:00,78.0,88.9,29.99,North,0,0.0,0.0,85,0.00,,,0.00,,2016-07-23 10:22:00,
2016-07-23 06:27:00,78.0,88.9,29.99,North,0,0.0,0.0,85,0.00,,,0.00,,2016-07-23 10:27:00,
2016-07-23 06:32:00,78.1,88.8,29.98,North,0,0.0,0.0,85,0.00,,,0.00,,2016-07-23 10:32:00,
2016-07-23 06:37:00,78.1,88.7,29.98,North,0,0.0,0.0,85,0.00,,,0.00,,2016-07-23 10:37:00,
2016-07-23 06:42:00,78.2,88.8,29.99,NNW,337,0.0,0.0,84,0.00,,,0.00,,2016-07-23 10:42:00,
2016-07-23 06:47:00,78.2,88.8,29.99,NNW,337,0.0,0.0,84,0.00,,,0.00,,2016-07-23 10:47:00,
2016-07-23 06:52:00,78.2,88.7,29.98,NNW,337,0.0,0.0,84,0.00,,,0.00,,2016-07-23 10:52:00,
2016-07-23 06:57:00,78.4,88.8,29.99,NNW,337,0.0,0.0,85,0.00,,,0.00,,2016-07-23 10:57:00,
2016-07-23 07:02:00,78.8,88.8,29.99,NNW,337,0.0,0.0,85,0.00,,,0.00,,2016-07-23 11:02:00,
2016-07-23 07:07:00,79.3,88.8,29.99,NNW,337,0.0,0.0,86,0.00,,,0.00,,2016-07-23 11:07:00,
2016-07-23 07:12:00,80.0,88.8,29.99,NNW,337,0.0,0.0,86,0.00,,,0.00,,2016-07-23 11:12:00,
2016-07-23 07:17:00,80.6,88.9,29.99,NNW,337,0.0,0.0,85,0.00,,,0.00,,2016-07-23 11:17:00,
2016-07-23 07:22:00,81.4,88.9,29.99,NNW,337,0.0,0.0,85,0.00,,,0.00,,2016-07-23 11:22:00,
2016-07-23 07:27:00,82.2,89.0,29.99,NNW,337,0.0,0.0,83,0.00,,,0.00,,2016-07-23 11:27:00,
2016-07-23 07:32:00,83.1,88.9,29.99,NNW,337,0.0,0.0,82,0.00,,,0.00,,2016-07-23 11:32:00,
2016-07-23 07:37:00,83.9,89.0,29.99,NNW,337,0.0,0.0,82,0.00,,,0.00,,2016-07-23 11:37:00,